009  
ASHW40 PHFO 111343  
RWRHI  
 
WEATHER ROUNDUP FOR HAWAII  
NATIONAL WEATHER SERVICE HONOLULU HI  
300 AM HST SUN DEC 11 2016  
 
THIS IS AN AUTOMATED REPORT THAT HAS NOT BEEN QUALITY CONTROLLED.  
 
NOTE..."FAIR" INDICATES FEW OR NO CLOUDS BELOW 12,000 FEET WITH NO  
SIGNIFICANT WEATHER AND/OR S TO VISIBILITY
.  
 
* - THESE SITES REPORT LIMITED FIELDS  
 
HIZ001>004-111400-  
KAUAI-NIIHAU-  
 
CITY SKY/WX TMP DP RH WIND PRES REMARKS
 
LIHUE APT MOCLDY 71 69 93 SW5 29.95F  
PORT ALLEN* N/A 70 N/A N/A N7 N/A  
POIPU* N/A 72 N/A N/A W2 N/A  
PRINCEVILLE* NOT AVBL  
KOKOLE POINT* NOT AVBL  
MOLOAA DAIRY* N/A 68 66 94 CALM N/A  
WAIMEA HTS* N/A 70 64 83 VRB5 N/A  
PUU OPAE* NOT AVBL  
PUU LUA* NOT AVBL  
MAKAHA RIDGE* N/A 66 61 82 S3G9 N/A  

 
 
HIZ005>011-111400-  
OAHU-  
 
CITY SKY/WX TMP DP RH WIND PRES REMARKS
 
HONOLULU MOCLDY 69 65 86 E3 29.96F  
KALAELOA PTCLDY 72 66 83 E3 29.97F  
KANEOHE MCB NOT AVBL  
WHEELER FIELD FAIR 68 66 94 SE3 29.96F  
BELLOWS* N/A N/A N/A N/A S3 N/A  
KAHUKU* N/A N/A N/A N/A NE1 N/A  
WHEELER* N/A N/A N/A N/A S6 N/A  
WAIANAE HARBOR N/A N/A N/A N/A NE3 N/A  
DILLINGHAM* N/A 84 81 89 MISG N/A HX 98  
KAHUKU TRN* N/A 70 64 83 N3 N/A  
KAWAILOA* N/A 66 63 88 SE7 N/A  
KII* N/A 70 70 100 S2 N/A  
MAKUA RANGE* N/A 82 79 89 N5 N/A HX 93  
OAHU FOREST NW NOT AVBL  
SCHOFIELD BRK* N/A 66 64 94 MISG N/A  
SCHOFIELD S* NOT AVBL  
WAIANAE VLY* NOT AVBL  
KUAOKALA* N/A 68 66 94 S6 N/A  
HONOULIUULI* NOT AVBL  
MOKUOLOE IS* NOT AVBL  
PALEHUA* N/A 61 61 100 NE2G10 N/A  
WAIAWA PHB* NOT AVBL  

 
 
HIZ012>013-111400-  
MOLOKAI-  
 
CITY SKY/WX TMP DP RH WIND PRES REMARKS
 
MOLOKAI AIRPT MOCLDY 69 67 93 SE9 29.96F  
KALAUPAPA NOT AVBL  
MAKAPULAPAI* N/A 70 68 94 NE3 N/A  
MOLOKAI 1* NOT AVBL  
PUU ALII* N/A 58 58 100 E3G16 N/A  

 
 
HIZ016-111400-  
KAHOOLAWE-  
 
CITY SKY/WX TMP DP RH WIND PRES REMARKS
 
KAHOOLAWE* NOT AVBL  
HAKIOAWA* N/A 69 66 90 MISG 30.36F  
HONOKANAIA* N/A 69 67 94 N3 29.91F  
KANELOA* N/A 70 68 94 N6 30.03F  
KEALIALALO* NOT AVBL  
LUA MAKIKA* NOT AVBL  

 
 
HIZ014>015-111400-  
LANAI-  
 
CITY SKY/WX TMP DP RH WIND PRES REMARKS
 
LANAI CITY CLOUDY 66 65 96 E9 30.00F  
LANAI 1* NOT AVBL  

 
 
HIZ017>028-111400-  
MAUI-  
 
CITY SKY/WX TMP DP RH WIND PRES REMARKS
 
KAHULUI LGT RAIN 71 69 93 SE7 29.94F  
KAPALUA-W MAUI NOT AVBL  
HANA AIRPORT N/A 66 66 100 S2 29.97S  
HANA* N/A 68 N/A N/A SW3 N/A  
HALEAKALA SUMM N/A 43 43 100 SW15 N/A  
MAALAEA BAY* N/A 72 N/A N/A S5 N/A  
HALEAKALA* NOT AVBL  
KAUPO GAP* N/A 73 73 100 SE3G13 N/A  
KULA 1* N/A 52 52 99 SE9G18 N/A  

 
 
HIZ023>026-111400-  
BIG ISLAND OF HAWAII COAST AND LOWER SLOPES-  
 
CITY SKY/WX TMP DP RH WIND PRES REMARKS
 
KAILUA KONA PTCLDY 72 69 90 N10 29.93F  
HILO LGT RAIN 72 70 94 SW3 29.96F  
HONOKAA* N/A 66 N/A N/A VRB1 N/A  
KAWAIHAE MWT* N/A 72 N/A N/A SE2 N/A  
KAWAIHAE* N/A 72 N/A N/A E1 29.94S  
SOUTH POINT* N/A 68 N/A N/A NW9 N/A  
UPOLU AIRPORT* NOT AVBL  
KAMUELA* CLOUDY 63 63 100 NE6 30.04F  
HAKALAU* N/A 51 50 95 SW2 N/A  
KALOKO-HONOKO* N/A 70 68 94 N2 29.93F  
PALI 2* N/A N/A N/A N/A SW5 N/A  
KEALAKOMO* N/A 72 70 94 N5 N/A  
KAUPULEHU* N/A 66 64 94 SE3 N/A  
KAPAPALA* NOT AVBL  
LOWER KAHUKU* N/A 61 59 94 VRB2 N/A  
PUHE CS* N/A 72 66 83 NE2 N/A  
PUHO CS* N/A 67 32 27 E1 N/A  
PTA KEAMUKU* N/A 63 57 82 CALM N/A  
WAIKOLOA* N/A 66 66 100 E5 N/A  

 
 
HIZ027>028-111400-  
BIG ISLAND OF HAWAII INTERIOR AND SUMMMITS-  
 
CITY SKY/WX TMP DP RH WIND PRES REMARKS
 
BRADSHAW FIELD MOCLDY 55 51 85 W5 30.28F  
MK VISITOR CEN N/A 46 41 81 NW9 N/A  
MAUNA KEA* N/A 32 30 93 SW62 N/A WCI 13  
MAUNA LOA* N/A 41 34 75 MISG N/A  
MAUNA LOA 1* NOT AVBL  
PTA KIPUKA* N/A 55 54 94 S7 N/A  
PTA RANGE 17* N/A 57 50 77 SW3G14 N/A  
PTA WEST* N/A 61 55 82 SE6 N/A  
NENE CABIN* N/A 52 48 87 NW3 N/A  
AHUMOA* N/A 54 50 85 S9G15 N/A  
PTA PORTABLE* NOT AVBL  
PUU MALI* N/A 54 50 87 S7 N/A  

 
 
HIC003-111400-  
NORTHWEST ISLANDS-  
 
CITY SKY/WX TMP DP RH WIND PRES REMARKS
 
MIDWAY ISLAND CLEAR 72 63 73 SE5 30.02F  
MIDWAY NOS* N/A 73 N/A N/A MISG 30.01S  
FRENCH FRIGATE NOT AVBL  

 
 
PHZ110>124-180-111400-  
BUOY REPORTS  
 
STATION/POSITION TIME TEMP WIND PRES WAVE SWELL
 
AIR SEA DIR/SP/G HT/PER HT/DIR  
(UTC) (F) (DEG/KT/KT) (MB) (FT/S) (FT/D)  
BUOY 51001 1320 74 78 300/ 14/ 16 1012.5  
BUOY 51101 1250 75 78 310/ 14/ 16 1013.6F 7/11 7/ 20  
BUOY 51100 NOT AVBL  
BUOY 51002 1320 78 79 90/ 8/ 10 1013.1  
BUOY 51003 1250 76 79 50/ 4/ 6 1013.2F 6/11 5/340  
BUOY 51004 1250 76 78 120/ 10/ 12 1014.4F 5/ 8 5/120  
BARBERS PT BUOY NOT AVBL  
WAIMEA BAY BUOY 1302 77 N/A 5/11 3/ 10  
KAILUA BAY BUOY 1304 78 N/A 5/12 3/360  
LANAI BUOY 1315 78 N/A 2/ 8 2/270  
BARBERS PT 2 1309 79 N/A 3/17 2/310  
PAUWELA MAUI 1309 78 N/A 4/10 2  
HILO 1312 78 N/A 5/ 8 2/360  
KANEOHE BAY BUOY 1306 77 N/A 5/11 3  
HANALEI KAUAI 1322 77 N/A 5/17 3/320  
KAHULUI HARBOR 1312 71 78 170/ 2/ 3 1013.3  
HONOLULU HARBOR 1312 71 78 70/ 1/ 2 1015.0  
KILO NALU NOT AVBL  
HILO HARBOR 1312 70 76 220/ 3/ 3 1014.4  
MOKUOLOE 1236 70 180/ 2/ 4 N/A  
NAWILIWILI 1312 72 78 190/ 6/ 10 1013.8  
WHOTS BUOY NOT AVBL  
BUOY 51028 NOT AVBL  

 
   
.....................KEY.....................................
 
 
SKY/WX - SKY CONDITIONS/PRESENT WEATHER  
TMP - TEMPERATURE IN FAHRENHEIT  
DWPT - DEWPOINT IN FAHRENHEIT  
RH - RELATIVE HUMIDITY IN PERCENT  
WIND - DIRECTION AND SPEED /MPH FOR ISLANDS...KTS FOR BUOYS/  
PRES - MEAN SEA LEVEL PRESSURE IN INCHES OF HG  
VSB - VISIBILITY IN MILES  
HX - HEAT INDEX  
WCI - WIND CHILL INDEX  
VRB - VARIABLE WIND DIRECTION  
N/A - NOT AVAILABLE  
 
 
CLICK HERE TO GO TO PREVIOUS BULLETINS.

The Nexlab HI Page Main Text Page